Content
SEND FEEDBACK

Daily
Averages
Monthly
Summary
United States of America

ACHANG BAY, GUAM


Home > North America > United States > Guam
Elevation: 30 feet     Latitude: 13 16N     Longitude: 144 45E

WEATHER
 
SELECT A DAY
Number of Records: 354,701;   Date Range: 1/1/95 - 11/26/14
 
SHARE

PRINT THIS DATA

[ ← Previous Day ]
WEATHER ALMANAC - DECEMBER 14, 2013
[ Next Day → ]
[ °C ]   °F
Weather ElementAverageHighLow
Temperature80 °F84.6 °F (12:58 pm)77 °F (5:53 pm)
Dewpoint76.9 °F78.8 °F (2:49 pm)73.4 °F (12:58 am)
Humidity90.9 %100 % (3:40 pm)74 % (11:53 am)
Barometer29.88 in29.96 in (8:48 am)29.82 in (2:58 pm)
Wind Speed17.7 mph21.9 mph (8:48 am)
Wind Gust29.9 mph (2:43 pm)
Weather ElementAverage
Visibility9.5 mi
Wind DirectionENE (55.8 °)

Weather ElementTotal
Precipitation0.03 in
Cooling Degree Days15.8 (Base 65)
Growing Degree Days30.8 (Base 50)
Averaged from 67 records on December 14, 2013
WEATHER CONDITIONS BREAKOUT
WIND DIRECTION BREAKOUT
WEATHER BY HOUR - DECEMBER 14, 2013
[ °C ]   °F
Local TimeTemperatureDewpointHumidityBarometerVisibilityWind DirectionWind SpeedGust SpeedPrecipitationEventsConditions
12:08 AM78.8 °F75.2 °F89 %29.92 in10.0 miENE (60°)18.4 mphMostly Cloudy
12:13 AM78.8 °F75.2 °F89 %29.92 in10.0 miENE (60°)19.6 mph27.6 mphMostly Cloudy
12:18 AM78.8 °F75.2 °F89 %29.92 in10.0 miENE (60°)17.3 mph27.6 mphMostly Cloudy
12:23 AM78.8 °F75.2 °F89 %29.92 in10.0 miENE (70°)19.6 mph26.5 mphScattered Clouds
12:58 AM79.0 °F73.4 °F83 %29.89 in10.0 miENE (70°)19.6 mph26.5 mphClear
1:58 AM79.2 °F75.2 °F88 %29.87 in10.0 miENE (60°)17.3 mph24.2 mphScattered Clouds
2:58 AM79.2 °F73.6 °F83 %29.86 in10.0 miENE (60°)17.3 mphPartly Cloudy
3:58 AM79.2 °F74.1 °F84 %29.84 in10.0 miENE (60°)17.3 mphScattered Clouds
4:58 AM79.2 °F75.2 °F88 %29.86 in10.0 miENE (70°)16.1 mphScattered Clouds
5:58 AM79.0 °F74.1 °F85 %29.87 in10.0 miENE (60°)20.7 mphPartly Cloudy
6:58 AM79.5 °F74.1 °F83 %29.89 in10.0 miNE (50°)18.4 mphPartly Cloudy
7:48 AM80.6 °F75.2 °F84 %29.94 in10.0 miENE (60°)17.3 mphMostly Cloudy
7:58 AM80.1 °F74.7 °F83 %29.91 in10.0 miNE (50°)18.4 mphMostly Cloudy
8:48 AM82.4 °F75.2 °F79 %29.96 in10.0 miNE (50°)21.9 mphMostly Cloudy
8:58 AM81.7 °F75.6 °F82 %29.94 in10.0 miNE (50°)20.7 mphMostly Cloudy
9:58 AM83.1 °F75.2 °F77 %29.92 in10.0 miNE (50°)20.7 mphScattered Clouds
10:58 AM83.7 °F75.6 °F76 %29.91 in10.0 miNE (50°)20.7 mphScattered Clouds
11:18 AM82.4 °F75.2 °F79 %29.93 in10.0 miNE (50°)20.7 mphMostly Cloudy
11:53 AM84.2 °F75.2 °F74 %29.92 in10.0 miNE (50°)20.7 mphScattered Clouds
11:58 AM84.0 °F75.6 °F76 %29.88 in10.0 miNE (50°)18.4 mphScattered Clouds
12:58 PM84.6 °F76.1 °F76 %29.86 in10.0 miNE (50°)16.1 mph24.2 mphPartly Cloudy
1:58 PM84.4 °F76.1 °F76 %29.83 in10.0 miNE (40°)17.3 mph24.2 mphScattered Clouds
2:43 PM84.2 °F77.0 °F79 %29.86 in9.0 miNE (50°)18.4 mph29.9 mphMostly Cloudy
2:44 PM82.4 °F77.0 °F84 %29.86 in7.0 miENE (60°)16.1 mph29.9 mphRainLight Rain
2:49 PM80.6 °F78.8 °F94 %29.86 in7.0 miNE (40°)12.7 mph29.9 mphLight Drizzle
2:54 PM80.6 °F78.8 °F94 %29.85 in9.0 miNE (40°)12.7 mphMostly Cloudy
2:58 PM80.4 °F78.1 °F93 %29.82 in10.0 miNE (40°)17.3 mph21.9 mph0.00 inMostly Cloudy
3:13 PM82.4 °F77.0 °F84 %29.85 in10.0 miNE (50°)19.6 mphMostly Cloudy
3:23 PM82.4 °F77.0 °F84 %29.85 in10.0 miNE (40°)20.7 mph24.2 mphMostly Cloudy
3:35 PM80.6 °F78.8 °F94 %29.86 in9.0 miENE (60°)20.7 mph28.8 mphLight Drizzle
3:40 PM78.8 °F78.8 °F100 %29.85 in9.0 miNE (50°)17.3 mph28.8 mphLight Drizzle
3:45 PM78.8 °F78.8 °F100 %29.85 in10.0 miNE (50°)15.0 mphOvercast
3:58 PM80.4 °F77.7 °F91 %29.82 in10.0 miNE (50°)16.1 mph0.00 inOvercast
4:08 PM82.4 °F77.0 °F84 %29.85 in10.0 miNE (50°)17.3 mphMostly Cloudy
4:18 PM82.4 °F77.0 °F84 %29.85 in10.0 miNE (50°)20.7 mphMostly Cloudy
4:58 PM80.4 °F78.4 °F94 %29.83 in10.0 miNE (50°)16.1 mph24.2 mphOvercast
5:08 PM80.6 °F78.8 °F94 %29.86 in10.0 miNE (50°)19.6 mphOvercast
5:23 PM80.6 °F78.8 °F94 %29.86 in10.0 miNE (50°)21.9 mph27.6 mphOvercast
5:28 PM80.6 °F78.8 °F94 %29.86 in10.0 miENE (60°)20.7 mphMostly Cloudy
5:33 PM80.6 °F78.8 °F94 %29.87 in10.0 miENE (60°)21.9 mphMostly Cloudy
5:37 PM78.8 °F77.0 °F94 %29.86 in9.0 miNE (50°)16.1 mph26.5 mphLight Drizzle
5:42 PM78.8 °F78.8 °F100 %29.86 in5.0 miENE (70°)16.1 mphRainLight Rain
5:47 PM78.8 °F78.8 °F100 %29.87 in4.0 miENE (70°)17.3 mphRainLight Rain
5:53 PM77.0 °F77.0 °F100 %29.87 in8.0 miENE (70°)15.0 mphMostly Cloudy
5:58 PM77.0 °F77.0 °F100 %29.84 in10.0 miENE (70°)16.1 mph0.01 inOvercast
6:03 PM77.0 °F75.2 °F94 %29.87 in10.0 miENE (60°)11.5 mphOvercast
6:23 PM78.8 °F75.2 °F89 %29.87 in10.0 miENE (60°)16.1 mph24.2 mphOvercast
6:38 PM77.0 °F77.0 °F100 %29.88 in10.0 miENE (60°)15.0 mphScattered Clouds
6:58 PM77.9 °F77.5 °F99 %29.86 in10.0 miNE (50°)16.1 mphClear
7:58 PM79.0 °F78.3 °F98 %29.86 in10.0 miENE (60°)17.3 mphScattered Clouds
8:03 PM78.8 °F78.8 °F100 %29.89 in10.0 miENE (60°)16.1 mphMostly Cloudy
8:22 PM78.8 °F78.8 °F100 %29.90 in4.0 miENE (60°)20.7 mphRainLight Rain
8:32 PM77.0 °F77.0 °F100 %29.90 in6.0 miENE (60°)16.1 mphMostly Cloudy
8:37 PM78.8 °F77.0 °F94 %29.90 in10.0 miENE (60°)18.4 mphMostly Cloudy
8:58 PM78.8 °F78.6 °F99 %29.87 in10.0 miENE (60°)12.7 mph0.01 inPartly Cloudy
9:23 PM78.8 °F78.8 °F100 %29.91 in10.0 miENE (60°)19.6 mph24.2 mphMostly Cloudy
9:33 PM78.8 °F78.8 °F100 %29.91 in10.0 miENE (60°)19.6 mphMostly Cloudy
9:38 PM78.8 °F77.0 °F94 %29.91 in10.0 miENE (60°)17.3 mphMostly Cloudy
9:43 PM78.8 °F77.0 °F94 %29.91 in10.0 miENE (60°)17.3 mphMostly Cloudy
9:53 PM78.8 °F77.0 °F94 %29.91 in10.0 miNE (50°)15.0 mphScattered Clouds
9:56 PM78.8 °F78.8 °F100 %29.91 in10.0 miNE (50°)20.7 mphLight Drizzle
9:58 PM78.8 °F78.8 °F100 %29.88 in10.0 miENE (60°)18.4 mph0.01 inLight Drizzle
10:05 PM78.8 °F77.0 °F94 %29.91 in10.0 miENE (60°)17.3 mphScattered Clouds
10:58 PM79.0 °F78.3 °F98 %29.87 in10.0 miENE (60°)16.1 mph0.00 inPartly Cloudy
11:48 PM78.8 °F78.8 °F100 %29.89 in10.0 miENE (60°)16.1 mphMostly Cloudy
11:53 PM78.8 °F78.8 °F100 %29.89 in10.0 miENE (60°)15.0 mphMostly Cloudy
11:58 PM78.8 °F78.8 °F100 %29.86 in10.0 miNE (50°)16.1 mphMostly Cloudy
Hourly data recorded from PGUA, located miles away from Achang Bay, Guam







STORIES FROM OUR PARTNERS